Location: Unspecified
(0.0000°N, 0.0000°E)
Time: 15:04:23
(UTC+00:00)

DMSP 5D-2 F13 DEB - Pass Details

Date: 22 February 2026
Orbit: 782 x 824 km, 98.9° (Epoch: 8 March)

Event Time Altitude Azimuth Distance (km) Brightness Sun altitude
Rises 18:26:56 0° 141° (SE) 3,269 ? -3.3°
Reaches altitude 10° 18:29:46 10° 125° (SE) 2,336 ? -4.0°
Maximum altitude 18:33:36 21° 77° (ENE) 1,683 ? -5.0°
Drops below altitude 10° 18:37:25 10° 29° (NNE) 2,329 ? -5.9°
Sets 18:40:14 0° 13° (NNE) 3,257 ? -6.6°
